Date,TemperatureHighF,TemperatureAvgF,TemperatureLowF,DewpointHighF,DewpointAvgF,DewpointLowF,HumidityHigh,HumidityAvg,HumidityLow,PressureMaxIn,PressureMinIn,WindSpeedMaxMPH,WindSpeedAvgMPH,GustSpeedMaxMPH,PrecipitationSumIn
2014-1-1,69,58,43,14,10,5,28,16,10,0.00,40.00,14,10,25,0.00
2014-1-4,54,35,51,26,-18,-100,33,21,31,0.00,40.00,7,6,9,0.00
2014-1-5,62,60,58,5,-2,-9,10,8,6,0.00,40.00,18,16,34,0.00
2014-1-6,64,57,53,0,-2,-6,11,9,7,0.00,40.00,30,17,45,0.00
2014-1-7,62,46,41,14,6,4,21,19,15,0.00,40.00,8,7,11,0.00
2014-1-8,59,55,43,32,22,18,64,31,20,0.00,40.00,7,6,10,0.00
2014-1-9,42,42,42,19,19,19,39,39,39,0.00,40.00,8,8,10,0.00
2014-1-10,67,64,52,25,24,22,30,22,19,0.00,40.00,9,8,12,0.00
2014-1-18,68,56,60,3,-12,-100,9,7,7,0.00,40.00,13,7,18,0.00
2014-1-19,68,64,60,15,11,3,17,13,10,0.00,40.00,9,5,12,0.00
2014-1-20,70,65,62,11,6,3,10,10,9,0.00,40.00,15,11,24,0.00
2014-1-21,69,68,66,8,8,7,10,9,9,0.00,40.00,18,15,29,0.00
2014-1-22,67,65,62,15,13,11,16,13,11,0.00,40.00,9,6,13,0.00
2014-1-23,57,57,57,7,7,7,13,13,13,0.00,40.00,21,21,31,0.00
2014-1-24,58,56,55,23,18,11,28,23,16,0.00,40.00,25,19,38,0.00
2014-1-25,65,54,55,35,14,-100,57,30,20,0.00,40.00,22,13,33,0.00
2014-1-26,61,53,43,47,40,24,78,62,44,0.00,40.00,11,6,15,0.00
2014-1-27,60,54,46,46,44,37,94,71,56,0.00,40.00,12,7,17,0.00
2014-1-28,67,51,42,37,34,22,78,57,18,0.00,40.00,10,8,14,0.00
2014-1-29,71,59,49,25,20,17,31,23,14,0.00,40.00,9,7,13,0.00
2014-1-30,62,54,49,47,33,15,85,50,24,0.00,40.00,17,8,24,0.00
2014-1-31,42,41,40,39,38,38,95,92,87,0.00,40.00,8,4,12,0.00
2014-2-1,41,40,39,37,34,31,91,80,68,0.00,40.00,0,0,2,0.00
2014-2-2,47,42,41,37,36,29,87,80,49,0.00,40.00,10,4,18,0.00
2014-2-3,43,40,35,36,35,33,93,83,72,0.00,40.00,11,6,15,0.00
2014-2-4,46,43,39,39,37,35,95,80,68,0.00,40.00,11,6,15,0.00
2014-2-5,50,44,39,39,37,34,92,79,55,0.00,40.00,9,5,14,0.00
2014-2-6,46,42,38,40,36,31,84,78,67,0.00,40.00,13,7,20,0.00
2014-2-20,67,57,46,19,17,16,32,22,14,0.00,40.00,22,11,33,0.00
2014-2-21,70,56,47,21,19,13,32,25,11,0.00,40.00,7,6,16,0.00
2014-2-22,64,48,42,25,7,-100,35,23,15,0.00,40.00,7,5,10,0.00
2014-2-23,65,52,44,21,18,16,40,28,16,0.00,40.00,8,7,12,0.00
2014-2-24,68,56,42,44,30,23,65,41,19,0.00,40.00,10,6,15,0.00
2014-2-25,65,54,43,46,36,23,95,56,21,0.00,40.00,10,6,17,0.00
2014-2-26,54,49,42,45,40,31,94,72,55,0.00,40.00,13,6,18,0.00
2014-2-27,58,50,47,49,44,42,92,82,63,0.00,40.00,13,6,19,0.00
2014-2-28,52,51,49,49,48,44,90,88,84,0.00,40.00,10,9,17,0.00
2014-3-1,48,45,44,42,40,39,83,82,80,0.00,40.00,11,10,18,0.00
2014-3-3,50,48,47,48,46,39,95,90,75,0.00,40.00,4,2,6,0.00
2014-3-4,58,51,39,47,42,35,94,73,57,0.00,40.00,12,7,21,0.00
2014-3-7,64,54,44,51,45,22,89,72,25,0.00,40.00,10,6,14,0.00
2014-3-8,67,59,58,20,8,-100,21,15,13,0.00,40.00,14,10,29,0.00
2014-3-9,67,62,57,23,19,12,21,19,15,0.00,40.00,13,8,23,0.00
2014-3-10,68,58,42,25,20,16,41,24,16,0.00,40.00,17,11,27,0.00
2014-3-11,70,60,43,42,29,17,42,32,21,0.00,40.00,13,8,18,0.00
2014-3-12,64,58,54,46,24,10,60,31,14,0.00,40.00,21,13,32,0.00
2014-3-13,60,52,45,44,35,12,94,59,15,0.00,40.00,12,8,18,0.00
2014-3-19,68,56,47,46,8,0,56,17,8,0.00,40.00,21,15,34,0.00
2014-3-20,65,54,43,42,31,20,64,44,18,0.00,40.00,11,8,17,0.00
2014-3-21,59,45,41,44,30,-100,93,72,45,0.00,40.00,12,5,18,0.00
2014-3-22,56,43,41,42,34,-100,96,80,59,0.00,40.00,10,3,15,0.00
2014-3-23,65,56,44,48,44,33,80,66,51,0.00,40.00,10,6,14,0.00
2014-3-24,63,52,47,50,47,36,89,81,58,0.00,40.00,11,6,16,0.00
2014-3-25,58,52,43,49,44,29,95,75,48,0.00,40.00,11,6,16,0.00
2014-3-26,46,45,44,44,43,40,94,92,86,0.00,40.00,17,11,24,0.00
2014-3-27,48,47,43,41,40,39,92,77,70,0.00,40.00,17,12,23,0.00
2014-3-28,63,58,48,47,43,38,82,60,45,0.00,40.00,8,6,14,0.00
2014-3-29,72,53,68,46,8,-100,46,29,35,0.00,40.00,12,10,17,0.00
2014-3-30,58,51,41,45,40,35,95,70,42,0.00,40.00,15,8,22,0.00
2014-3-31,57,47,38,40,36,27,91,70,34,0.00,40.00,17,10,23,0.00
2014-4-1,41,38,40,39,30,-100,95,88,91,0.00,40.00,14,11,20,0.00
2014-4-2,45,44,42,33,32,32,71,65,59,0.00,40.00,16,14,23,0.00
2014-4-3,57,48,33,41,33,27,78,57,37,0.00,40.00,12,7,16,0.00
2014-4-4,53,44,33,41,34,23,93,70,47,0.00,40.00,11,6,16,0.00
2014-4-6,68,61,39,35,26,21,75,29,17,0.00,40.00,13,8,24,0.00
2014-4-7,80,71,48,32,26,21,53,19,12,0.00,40.00,15,8,25,0.00
2014-4-8,82,74,49,34,26,18,40,19,9,0.00,40.00,12,8,19,0.00
2014-4-9,82,73,50,32,21,8,39,17,6,0.00,40.00,12,8,18,0.00
2014-4-10,80,65,50,25,15,-3,27,16,4,0.00,40.00,11,7,15,0.00
2014-4-11,74,65,52,45,22,9,65,22,11,0.00,40.00,14,8,19,0.00
2014-4-12,58,46,40,45,35,-100,91,76,49,0.00,40.00,13,5,19,0.00
2014-4-13,60,47,42,47,42,38,94,82,53,0.00,40.00,12,4,18,0.00
2014-4-19,67,55,45,51,44,-100,96,72,48,0.00,40.00,12,6,22,0.00
2014-4-20,74,64,50,51,43,34,73,49,26,0.00,40.00,13,7,18,0.00
2014-4-21,77,66,52,50,39,29,66,41,18,0.00,40.00,13,6,20,0.00
2014-4-22,63,55,43,49,41,31,94,62,36,0.00,40.00,17,8,24,0.00
2014-4-23,64,52,41,45,39,31,94,64,37,0.00,40.00,11,5,17,0.00
2014-4-24,67,54,43,44,39,30,82,58,36,0.00,40.00,10,6,14,0.00
2014-4-25,60,51,42,47,40,30,88,67,36,0.00,40.00,17,8,23,0.00
2014-4-26,48,44,41,40,34,-100,94,76,63,0.00,40.00,16,11,26,0.00
2014-4-27,56,44,38,46,40,36,94,84,66,0.00,40.00,10,4,15,0.00
2014-4-28,73,62,48,48,39,26,86,46,21,0.00,40.00,15,6,27,0.00
2014-4-29,73,68,63,26,12,2,21,12,7,0.00,40.00,29,17,51,0.00
2014-4-30,71,66,60,10,6,2,12,10,7,0.00,40.00,43,18,65,0.00
2014-5-1,76,67,54,22,12,4,28,13,8,0.00,40.00,14,7,36,0.00
2014-5-2,86,70,52,23,16,10,27,14,7,0.00,40.00,17,8,24,0.00
2014-5-3,83,66,53,28,19,-100,30,18,9,0.00,40.00,14,8,22,0.00
2014-5-4,79,63,50,45,25,12,62,26,9,0.00,40.00,14,7,20,0.00
2014-5-5,67,55,44,48,33,5,94,50,9,0.00,40.00,13,8,21,0.00
2014-5-13,74,72,69,6,5,3,8,7,7,0.00,40.00,21,16,38,0.00
2014-5-14,79,73,67,9,4,1,9,7,5,0.00,40.00,38,22,64,0.00
2014-5-15,88,78,60,19,10,3,20,8,5,0.00,40.00,19,10,30,0.00
2014-5-16,87,72,57,29,18,10,24,15,6,0.00,40.00,15,8,23,0.00
2014-5-17,81,68,58,41,26,-100,40,23,10,0.00,40.00,14,6,20,0.00
2014-5-18,75,64,52,46,34,10,64,36,9,0.00,40.00,14,7,21,0.00
2014-5-19,67,54,44,48,30,-100,93,50,9,0.00,40.00,13,7,22,0.00
2014-5-24,67,57,46,53,48,-100,96,77,58,0.00,40.00,11,6,18,0.00
2014-5-25,78,65,52,53,46,36,81,52,29,0.00,40.00,10,6,18,0.00
2014-5-26,83,69,55,52,41,34,55,37,25,0.00,40.00,10,6,16,0.00
2014-5-27,82,70,59,55,46,37,62,43,23,0.00,40.00,13,7,19,0.00
2014-5-28,78,69,59,52,44,36,62,42,23,0.00,40.00,11,7,17,0.00
2014-5-29,79,67,52,52,40,25,61,40,15,0.00,40.00,12,7,18,0.00
2014-5-30,82,69,54,52,37,19,57,35,10,0.00,40.00,12,7,17,0.00
2014-5-31,81,67,56,41,25,-100,51,23,3,0.00,40.00,14,8,22,0.00
2014-6-1,82,70,56,37,18,-2,35,16,5,0.00,40.00,14,7,21,0.00
2014-6-2,80,67,53,47,24,0,55,23,5,0.00,40.00,13,7,19,0.00
2014-6-3,83,66,50,36,21,2,37,19,5,0.00,40.00,12,7,20,0.00
2014-6-4,81,69,55,38,27,15,41,23,11,0.00,40.00,11,6,17,0.00
2014-6-5,80,66,50,41,22,-1,45,22,6,0.00,40.00,13,7,21,0.00
2014-6-6,75,63,53,49,36,21,62,40,14,0.00,40.00,10,5,15,0.00
2014-6-7,77,64,53,51,39,-100,61,43,23,0.00,40.00,11,6,17,0.00
2014-6-8,85,74,59,53,43,33,43,33,24,0.00,40.00,11,6,16,0.00
2014-6-9,89,74,66,57,44,32,62,36,22,0.00,40.00,13,8,18,0.00
2014-6-10,77,67,57,53,47,35,72,50,22,0.00,40.00,11,7,17,0.00
2014-6-11,80,67,52,47,35,16,58,34,11,0.00,40.00,14,8,21,0.00
2014-6-12,79,70,55,50,36,17,63,32,10,0.00,40.00,12,7,18,0.00
2014-6-13,77,66,54,49,35,20,64,34,13,0.00,40.00,13,7,19,0.00
2014-6-14,78,62,50,45,28,-100,52,31,14,0.00,40.00,13,7,19,0.00
2014-6-15,76,62,48,40,30,15,52,32,11,0.00,40.00,16,8,25,0.00
2014-6-16,76,63,50,47,30,14,61,32,15,0.00,40.00,13,8,21,0.00
2014-6-17,72,62,52,45,31,9,67,35,11,0.00,40.00,18,8,25,0.00
2014-6-18,72,61,44,43,34,14,62,38,13,0.00,40.00,12,7,25,0.00
2014-6-19,82,67,51,52,38,25,58,36,21,0.00,40.00,13,6,18,0.00
2014-6-20,87,72,59,54,41,29,58,35,13,0.00,40.00,12,7,20,0.00
2014-6-21,84,73,59,43,36,26,50,27,13,0.00,40.00,13,7,19,0.00
2014-6-22,80,69,54,49,35,16,56,31,10,0.00,40.00,13,7,19,0.00
2014-6-23,79,65,52,52,30,12,63,30,9,0.00,40.00,10,7,19,0.00
2014-6-24,79,68,53,52,34,11,60,30,9,0.00,40.00,12,8,17,0.00
2014-6-25,78,69,57,53,45,37,64,44,29,0.00,40.00,12,6,17,0.00
2014-6-26,80,69,59,54,48,41,75,49,30,0.00,40.00,14,7,21,0.00
2014-6-27,73,63,56,56,51,46,77,65,51,0.00,40.00,13,6,21,0.00
2014-6-28,80,68,58,54,48,-100,77,52,33,0.00,40.00,11,6,17,0.00
2014-6-29,85,73,60,57,50,42,61,46,31,0.00,40.00,11,6,15,0.00
2014-6-30,84,75,63,58,51,32,64,43,24,0.00,40.00,11,7,17,0.00
2014-7-1,84,74,63,57,46,31,58,38,24,0.00,40.00,11,6,16,0.00
2014-7-2,85,76,64,57,51,41,58,43,32,0.00,40.00,12,6,17,0.00
2014-7-3,90,78,64,52,42,30,41,28,16,0.00,40.00,13,7,17,0.00
2014-7-4,87,77,67,65,55,45,70,47,36,0.00,40.00,21,9,30,0.00
2014-7-5,83,76,63,55,51,47,69,44,30,0.00,40.00,14,8,23,0.00
2014-7-6,85,75,66,51,45,39,47,35,25,0.00,40.00,14,7,21,0.00
2014-7-7,86,76,65,52,44,36,48,33,21,0.00,40.00,13,6,19,0.00
2014-7-8,87,76,65,47,42,32,47,31,16,0.00,40.00,10,7,16,0.00
2014-7-9,85,74,64,54,42,31,56,33,15,0.00,40.00,11,7,18,0.00
2014-7-10,83,71,56,51,41,32,53,36,19,0.00,40.00,14,8,19,0.00
2014-7-11,78,69,59,53,45,32,67,43,21,0.00,40.00,13,7,19,0.00
2014-7-12,81,68,56,56,51,47,76,56,42,0.00,40.00,11,6,17,0.00
2014-7-13,90,76,66,59,52,41,65,44,23,0.00,40.00,12,6,17,0.00
2014-7-14,85,74,65,66,59,52,90,61,40,0.00,40.00,21,7,30,0.00
2014-7-15,77,68,62,62,59,47,90,74,56,0.00,40.00,11,6,15,0.00
2014-7-16,78,67,58,54,43,25,70,44,21,0.00,40.00,13,7,21,0.00
2014-7-17,75,63,51,54,46,31,84,56,36,0.00,40.00,12,6,22,0.00
2014-7-18,75,64,54,56,43,23,83,49,22,0.00,40.00,12,6,20,0.00
2014-7-19,76,65,57,58,53,48,95,67,51,0.00,40.00,11,5,18,0.00
2014-7-20,77,66,56,58,56,50,95,71,50,0.00,40.00,11,6,18,0.00
2014-7-21,81,71,55,55,46,28,68,43,27,0.00,40.00,12,8,19,0.00
2014-7-22,85,72,56,56,44,24,63,39,22,0.00,40.00,13,7,18,0.00
2014-7-23,89,78,66,51,46,39,55,33,23,0.00,40.00,12,6,20,0.00
2014-7-24,95,83,70,50,43,37,33,25,14,0.00,40.00,11,6,16,0.00
2014-7-25,88,77,69,57,47,34,54,36,20,0.00,40.00,11,6,16,0.00
2014-7-26,83,71,68,59,49,39,66,47,29,0.00,40.00,11,4,15,0.00
2014-7-27,82,74,67,62,56,49,61,53,40,0.00,40.00,15,7,25,0.00
2014-7-28,86,76,65,60,51,40,75,46,21,0.00,40.00,13,6,21,0.00
2014-7-29,87,76,67,48,45,43,43,34,25,0.00,40.00,14,7,21,0.00
2014-7-30,88,80,68,54,47,41,45,32,23,0.00,40.00,15,7,22,0.00
2014-7-31,89,76,69,58,47,45,47,37,28,0.00,40.00,13,5,20,0.00
2014-8-1,88,79,69,58,50,41,48,37,22,0.00,40.00,12,5,16,0.00
2014-8-2,78,73,67,64,56,46,90,58,37,0.00,40.00,13,6,20,0.00
2014-8-3,73,68,63,66,61,55,96,80,54,0.00,40.00,15,6,22,0.00
2014-8-4,80,71,62,63,54,47,96,60,31,0.00,40.00,15,8,24,0.00
2014-8-5,83,71,52,51,37,26,68,33,15,0.00,40.00,12,7,19,0.00
2014-8-6,77,64,50,53,39,24,71,41,16,0.00,40.00,12,7,18,0.00
2014-8-7,78,69,56,54,48,30,77,48,30,0.00,40.00,12,6,18,0.00
2014-8-8,78,70,60,58,53,44,73,55,37,0.00,40.00,11,6,16,0.00
2014-8-9,84,72,59,60,52,40,71,49,25,0.00,40.00,12,7,17,0.00
2014-8-10,84,73,60,55,45,31,58,38,15,0.00,40.00,13,7,17,0.00
2014-8-11,85,75,66,58,52,47,62,46,29,0.00,40.00,13,7,20,0.00
2014-8-12,83,74,65,61,57,50,80,58,44,0.00,40.00,14,6,24,0.00
2014-8-13,83,74,65,61,59,55,79,61,43,0.00,40.00,10,6,16,0.00
2014-8-14,85,74,61,55,51,45,64,45,30,0.00,40.00,15,9,22,0.00
2014-8-15,88,75,63,58,54,48,68,50,34,0.00,40.00,13,7,22,0.00
2014-8-16,89,75,63,58,54,51,74,51,31,0.00,40.00,13,7,21,0.00
2014-8-17,87,77,66,52,49,46,55,39,26,0.00,40.00,14,7,22,0.00
2014-8-18,86,77,66,56,50,44,57,40,32,0.00,40.00,12,7,17,0.00
2014-8-19,77,68,59,56,46,34,76,49,22,0.00,40.00,11,6,17,0.00
2014-8-20,76,68,59,56,44,32,74,44,24,0.00,40.00,14,6,19,0.00
2014-8-21,79,69,60,59,51,45,69,55,30,0.00,40.00,15,7,21,0.00
2014-8-22,79,68,57,56,46,36,77,49,25,0.00,40.00,13,7,22,0.00
2014-8-23,80,68,53,44,33,28,47,28,16,0.00,40.00,12,9,21,0.00
2014-8-24,83,64,51,50,31,18,56,33,11,0.00,40.00,9,7,14,0.00
2014-8-25,82,71,62,55,44,34,63,39,25,0.00,40.00,13,7,19,0.00
2014-8-26,84,72,59,53,45,37,58,40,23,0.00,40.00,13,8,20,0.00
2014-8-27,87,73,59,49,41,31,46,33,23,0.00,40.00,14,7,20,0.00
2014-8-28,89,78,66,49,48,44,52,35,22,0.00,40.00,16,8,24,0.00
2014-8-29,88,79,68,52,46,40,43,32,21,0.00,40.00,12,6,19,0.00
2014-8-30,91,76,65,47,37,31,33,24,14,0.00,40.00,13,7,17,0.00
2014-8-31,88,76,65,46,36,21,39,24,13,0.00,40.00,13,8,22,0.00
2014-9-1,86,75,62,55,38,6,46,29,5,0.00,40.00,10,8,16,0.00
2014-9-2,85,74,63,55,43,21,60,37,11,0.00,40.00,10,7,16,0.00
2014-9-3,82,72,58,56,47,34,71,43,20,0.00,40.00,11,7,17,0.00
2014-9-4,81,70,56,57,44,32,70,41,25,0.00,40.00,11,6,18,0.00
2014-9-5,86,78,60,62,42,22,60,31,10,0.00,40.00,11,7,16,0.00
2014-9-6,88,78,71,65,58,54,68,49,34,0.00,40.00,17,6,28,0.00
2014-9-7,86,76,70,68,61,56,83,61,43,0.00,40.00,15,7,23,0.00
2014-9-8,81,72,62,65,48,31,84,49,18,0.00,40.00,15,6,23,0.00
2014-9-9,80,69,60,62,51,38,88,55,39,0.00,40.00,15,7,22,0.00
2014-9-10,87,72,61,58,55,52,88,58,34,0.00,40.00,12,5,21,0.00
2014-9-11,86,74,63,56,52,49,67,49,33,0.00,40.00,12,7,21,0.00
2014-9-12,90,80,65,53,49,47,54,36,24,0.00,40.00,12,6,18,0.00
2014-9-13,94,81,68,48,43,40,41,28,17,0.00,40.00,11,7,21,0.00
2014-9-14,93,82,72,55,52,47,46,36,23,0.00,40.00,14,8,23,0.00
2014-9-15,93,81,70,56,52,50,53,39,25,0.00,40.00,12,7,19,0.00
2014-9-16,88,79,71,64,58,51,64,49,38,0.00,40.00,28,12,37,0.00
2014-9-17,87,78,70,61,58,57,65,52,38,0.00,40.00,18,8,26,0.00
2014-9-18,77,68,61,60,56,49,94,66,42,0.00,40.00,14,6,21,0.00
2014-9-19,71,62,56,59,56,53,95,83,63,0.00,40.00,8,4,10,0.00
2014-9-20,75,65,55,57,53,45,79,64,48,0.00,40.00,12,6,17,0.00
2014-9-21,78,63,49,56,42,25,72,49,19,0.00,40.00,11,7,18,0.00
2014-9-22,84,70,59,55,44,29,56,41,15,0.00,40.00,10,7,17,0.00
2014-9-23,87,73,62,48,42,35,47,33,22,0.00,40.00,13,7,17,0.00
2014-9-24,89,75,64,53,50,44,59,42,28,0.00,40.00,14,7,20,0.00
2014-9-25,87,75,66,55,52,50,62,47,28,0.00,40.00,13,6,19,0.00
2014-9-26,80,68,57,59,54,49,93,62,42,0.00,40.00,15,6,20,0.00
2014-9-27,67,56,49,54,44,32,94,64,38,0.00,40.00,17,7,23,0.00
2014-9-28,67,54,44,53,45,39,92,74,44,0.00,40.00,13,7,23,0.00
2014-9-30,79,67,56,55,43,36,69,45,23,0.00,40.00,12,7,19,0.00
2014-10-1,76,62,50,55,39,34,65,46,24,0.00,40.00,10,6,14,0.00
2014-10-2,83,75,68,37,24,12,27,16,7,0.00,40.00,18,13,32,0.00
2014-10-3,88,78,67,16,10,0,12,8,4,0.00,40.00,17,9,28,0.00
2014-10-4,90,78,63,31,20,9,20,12,6,0.00,40.00,12,7,21,0.00
2014-10-5,89,73,60,30,25,19,25,18,8,0.00,40.00,14,8,24,0.00
2014-10-6,85,72,60,31,25,19,26,19,9,0.00,40.00,11,6,16,0.00
2014-10-7,80,72,66,45,34,28,45,26,17,0.00,40.00,12,6,19,0.00
2014-10-8,78,68,58,46,43,36,57,42,23,0.00,40.00,11,6,20,0.00
2014-10-9,74,64,51,54,43,30,76,50,21,0.00,40.00,10,6,14,0.00
2014-10-10,79,65,53,51,38,31,57,38,18,0.00,40.00,11,8,19,0.00
2014-10-11,82,71,54,47,31,15,51,26,8,0.00,40.00,12,8,20,0.00
2014-10-12,80,67,55,55,37,15,65,37,9,0.00,40.00,14,7,18,0.00
2014-10-13,82,73,60,32,18,13,35,13,8,0.00,40.00,18,9,30,0.00
2014-10-14,75,65,58,55,27,11,76,30,11,0.00,40.00,11,6,16,0.00
2014-10-15,67,58,50,54,50,35,94,75,39,0.00,40.00,11,5,16,0.00
2014-10-16,67,54,47,54,49,43,91,83,52,0.00,40.00,10,4,14,0.00
2014-10-17,69,59,53,54,50,42,94,76,53,0.00,40.00,11,5,16,0.00
2014-10-18,68,55,45,53,48,38,94,77,49,0.00,40.00,9,4,14,0.00
2014-10-19,71,59,51,56,50,43,91,73,48,0.00,40.00,12,5,16,0.00
2014-10-20,73,64,55,56,50,41,87,62,39,0.00,40.00,10,6,14,0.00
2014-10-21,74,61,52,53,45,38,77,60,28,0.00,40.00,11,6,17,0.00
2014-10-22,81,67,49,45,22,3,62,22,6,0.00,40.00,10,7,15,0.00
2014-10-23,83,67,56,42,30,21,40,26,13,0.00,40.00,10,7,15,0.00
2014-10-24,82,68,55,40,36,31,41,31,20,0.00,40.00,12,8,19,0.00
2014-10-25,76,64,58,56,43,36,67,48,32,0.00,40.00,14,7,20,0.00
2014-10-26,64,57,46,53,48,44,95,72,52,0.00,40.00,9,4,14,0.00
2014-10-27,70,56,40,52,40,24,95,59,38,0.00,40.00,10,6,19,0.00
2014-10-28,75,63,50,52,38,29,75,41,23,0.00,40.00,12,6,18,0.00
2014-10-29,80,69,61,29,24,18,28,19,10,0.00,40.00,17,8,27,0.00
2014-10-30,76,65,55,51,31,22,85,31,16,0.00,40.00,12,5,19,0.00
2014-10-31,64,55,47,53,46,32,94,73,41,0.00,40.00,11,5,19,0.00
2014-11-1,52,48,46,50,45,40,96,87,65,0.00,40.00,20,13,29,0.00
2014-11-2,54,47,42,43,41,38,95,80,54,0.00,40.00,11,6,20,0.00
2014-11-3,61,50,38,38,28,13,85,49,20,0.00,40.00,12,7,21,0.00
2014-11-4,66,59,52,22,11,5,30,15,10,0.00,40.00,14,8,23,0.00
2014-11-5,72,65,61,11,8,4,13,11,7,0.00,40.00,34,17,45,0.00
2014-11-6,73,69,66,24,17,9,17,14,10,0.00,40.00,17,11,31,0.00
2014-11-7,80,71,61,28,23,18,28,17,12,0.00,40.00,10,6,15,0.00
2014-11-8,82,70,63,27,23,19,20,16,11,0.00,40.00,10,6,17,0.00
2014-11-9,77,65,51,44,33,24,59,34,14,0.00,40.00,11,6,15,0.00
2014-11-10,67,56,45,49,37,28,93,54,27,0.00,40.00,9,6,14,0.00
2014-11-11,59,52,45,47,44,40,93,77,59,0.00,40.00,11,5,16,0.00
2014-11-12,57,51,45,48,45,42,93,82,65,0.00,40.00,12,5,17,0.00
2014-11-13,61,51,42,50,45,39,95,82,54,0.00,40.00,10,5,14,0.00
2014-11-14,60,53,50,51,49,44,96,87,59,0.00,40.00,10,4,15,0.00
2014-11-15,60,51,45,49,45,39,95,79,55,0.00,40.00,10,5,15,0.00
2014-11-16,57,50,42,43,16,-20,95,47,4,0.00,40.00,22,10,38,0.00
2014-11-17,62,56,51,4,-2,-13,12,9,6,0.00,40.00,26,17,41,0.00
2014-11-18,65,57,50,3,0,-3,13,10,7,0.00,40.00,18,10,30,0.00
2014-11-19,65,49,41,26,12,2,47,25,8,0.00,40.00,9,7,13,0.00
2014-11-20,60,49,38,49,28,8,95,51,21,0.00,40.00,14,6,20,0.00
2014-11-21,56,50,44,48,45,38,96,85,60,0.00,40.00,19,8,29,0.00
2014-11-22,62,52,42,41,34,29,77,51,28,0.00,40.00,12,7,17,0.00
2014-11-23,61,53,43,34,23,-4,62,37,8,0.00,40.00,17,8,33,0.00
2014-11-24,62,57,54,10,4,-10,15,12,6,0.00,40.00,17,9,28,0.00
2014-11-25,71,60,51,16,5,-3,24,12,5,0.00,40.00,21,11,44,0.00
2014-11-26,75,70,55,17,14,5,18,12,9,0.00,40.00,17,9,26,0.00
2014-11-27,80,65,54,19,15,9,23,16,7,0.00,40.00,17,9,25,0.00
2014-11-28,75,61,49,20,16,12,27,19,9,0.00,40.00,8,6,12,0.00
2014-11-29,70,55,45,34,21,13,53,27,13,0.00,40.00,13,7,16,0.00
2014-11-30,56,50,43,47,42,25,91,76,34,0.00,40.00,11,5,19,0.00
2014-12-1,65,53,43,42,37,32,89,57,32,0.00,40.00,8,5,11,0.00
2014-12-2,62,56,51,54,45,32,95,71,36,0.00,40.00,12,7,21,0.00
2014-12-3,56,56,55,55,54,53,96,95,94,0.00,40.00,7,6,11,0.00
2014-12-4,56,52,44,53,49,41,95,87,74,0.00,40.00,19,6,27,0.00
2014-12-5,62,53,44,51,46,41,95,81,50,0.00,40.00,16,6,22,0.00
2014-12-6,61,54,49,52,47,43,95,76,57,0.00,40.00,14,6,24,0.00
2014-12-7,67,60,56,48,40,34,75,48,32,0.00,40.00,17,9,25,0.00
2014-12-8,66,61,53,42,36,31,52,40,30,0.00,40.00,7,4,12,0.00
2014-12-9,67,56,44,40,33,27,63,44,24,0.00,40.00,12,7,18,0.00
2014-12-10,65,54,49,45,34,25,65,42,22,0.00,40.00,10,6,19,0.00
2014-12-11,64,55,47,50,40,33,94,60,32,0.00,40.00,13,6,18,0.00
2014-12-12,50,46,44,45,44,43,96,91,80,0.00,40.00,16,8,23,0.00
2014-12-13,48,43,36,43,40,32,96,88,73,0.00,40.00,14,8,22,0.00
2014-12-14,54,43,34,40,31,28,85,64,41,0.00,40.00,9,5,12,0.00
2014-12-15,51,47,43,43,33,24,94,60,35,0.00,40.00,13,5,17,0.00
2014-12-16,50,44,38,45,40,32,95,84,63,0.00,40.00,8,5,16,0.00
2014-12-17,46,44,42,43,41,39,95,90,83,0.00,40.00,14,8,23,0.00
2014-12-18,49,44,40,44,41,35,94,86,73,0.00,40.00,8,4,11,0.00
2014-12-19,56,44,37,42,36,32,89,75,55,0.00,40.00,8,5,12,0.00
2014-12-20,53,44,36,46,36,30,94,76,56,0.00,40.00,9,5,12,0.00
2014-12-21,65,55,42,45,40,34,92,60,37,0.00,40.00,8,4,10,0.00
2014-12-22,73,60,52,41,35,32,60,40,22,0.00,40.00,8,5,12,0.00
2014-12-23,66,62,56,33,29,23,38,30,20,0.00,40.00,21,13,35,0.00